GFSGBSN_prec_cloud_021.txt.gz
Cloud_Cover
100 98 62 100 100 98 21 65 100 100 100 100 86 4 5 2 86 99 34 0 18 100 69 100 89 28 84 76 34 0 0 0 0 0 0 0 9 42 9 86 100 100 100 100 100 100 100
100 99 78 100 100 100 4 13 82 27 98 100 78 70 3 1 18 69 3 77 100 100 100 100 100 100 9 0 0 0 0 0 0 0 0 0 0 0 0 2 13 78 100 100 100 100 100
100 100 100 100 100 59 4 85 100 100 82 48 66 37 18 100 5 7 93 100 100 100 100 100 52 1 0 0 0 0 0 0 0 0 0 0 0 0 0 0 0 0 1 6 68 100 99
100 100 100 100 98 5 85 100 89 91 24 24 14 100 100 85 100 100 100 100 100 100 99 13 1 0 0 0 0 0 0 0 0 0 0 0 0 0 0 0 0 0 0 2 0 0 0
100 100 100 100 77 23 92 100 91 68 100 65 100 100 100 100 100 100 100 100 85 5 5 3 2 0 0 0 0 0 0 0 0 0 0 0 0 0 0 0 0 0 49 1 0 0 0
100 100 100 36 43 56 100 47 37 100 100 100 100 100 100 100 100 100 100 90 5 31 16 0 0 2 4 2 4 4 3 3 1 0 0 0 0 0 0 1 86 6 0 0 0 0 0
100 100 85 4 100 52 78 5 100 100 100 100 100 100 100 100 100 100 35 4 0 0 0 1 5 58 9 5 5 4 1 0 0 0 0 0 1 4 0 0 0 0 0 0 0 0 0
100 100 9 44 98 69 82 100 100 100 100 100 100 100 100 80 11 5 12 0 0 0 11 38 49 52 5 0 0 0 0 0 0 0 0 0 0 0 0 0 0 0 0 0 0 0 0
100 95 6 100 70 9 100 100 100 100 100 100 100 100 100 10 5 28 1 4 6 29 98 53 7 4 0 0 0 0 0 0 0 0 0 0 0 0 0 0 0 0 0 0 0 0 0
100 18 56 100 75 100 100 100 100 100 100 96 43 63 34 5 33 5 25 96 100 100 98 18 3 0 0 0 0 0 0 0 0 0 0 0 0 0 0 0 0 0 0 0 0 0 10
99 20 100 71 100 100 100 100 100 100 15 96 91 79 100 10 25 73 100 100 78 62 18 5 0 0 0 0 0 0 0 0 0 0 0 0 0 0 0 0 0 0 0 0 0 0 0
53 63 100 72 100 100 100 100 100 76 24 58 84 100 100 66 51 100 100 80 68 6 5 0 0 0 0 0 0 0 0 0 0 0 0 0 0 0 0 0 0 0 0 0 0 0 1
17 100 100 61 72 100 100 100 12 11 72 52 100 100 100 100 100 100 75 49 23 5 5 0 0 0 0 0 0 0 0 0 0 0 0 0 0 0 0 0 0 0 0 5 55 19 57
97 100 100 100 100 100 100 65 100 100 100 100 100 100 100 100 100 91 31 53 8 5 2 0 0 0 0 0 0 0 0 0 0 0 0 3 4 0 0 0 0 0 0 4 2 5 18
100 100 100 100 100 100 100 100 100 100 100 100 100 100 100 51 80 79 10 46 22 4 0 0 0 0 0 0 0 0 0 0 0 0 1 0 2 0 0 0 0 0 3 0 0 0 0
100 100 100 100 100 100 100 100 100 100 100 100 100 99 71 83 56 30 5 63 5 3 0 0 0 0 0 0 0 0 0 0 0 0 0 0 1 0 0 0 0 0 0 4 5 22 0
100 100 100 100 100 100 100 100 100 100 100 100 100 99 67 69 44 5 12 5 0 0 0 0 1 0 0 0 5 5 3 0 0 0 0 0 0 0 0 0 0 2 5 0 0 0 1
100 100 100 100 100 100 100 100 100 100 100 100 79 59 58 47 5 5 5 0 0 0 0 0 5 5 4 5 5 5 5 0 0 0 0 0 0 0 0 0 0 0 2 1 0 0 5
100 100 100 100 100 100 100 100 100 100 100 100 100 96 26 53 10 5 5 5 5 1 0 2 0 4 5 5 5 4 0 0 0 0 0 0 0 0 0 0 1 1 4 5 3 2 5
100 100 100 100 100 100 100 100 100 100 100 64 82 84 18 33 16 11 55 5 8 5 4 5 5 5 8 5 5 0 0 0 0 0 2 5 0 2 3 4 5 3 3 5 5 7 5
100 100 100 100 100 100 100 100 100 100 100 45 68 72 20 53 27 72 69 79 51 5 5 5 5 5 5 1 0 0 0 0 0 0 0 0 0 0 0 0 0 4 5 5 5 5 80
100 100 100 100 100 100 100 100 100 100 100 99 56 18 14 5 5 19 36 60 45 20 7 5 5 2 0 0 0 0 0 0 0 0 2 0 5 5 5 0 0 0 0 0 5 5 27
100 100 100 100 100 100 100 100 100 100 100 100 8 74 41 5 5 5 13 76 56 71 34 10 10 5 5 2 0 0 1 0 0 2 4 1 5 5 5 7 2 18 5 5 5 95 81
100 100 100 100 100 100 100 100 100 100 100 41 24 64 59 12 80 17 5 16 89 50 6 38 82 64 8 5 5 4 5 5 5 3 4 5 5 21 37 72 39 9 5 6 33 5 57
100 100 100 100 100 100 100 100 100 100 100 100 100 98 100 100 99 38 5 7 5 35 72 95 63 61 60 5 8 14 25 76 47 5 5 5 6 40 69 5 5 6 5 5 10 6 21
100 100 100 100 100 100 100 100 100 100 100 100 100 100 100 100 100 100 100 99 100 78 32 16 37 49 10 6 39 95 10 5 61 15 5 4 7 13 86 39 38 5 98 56 14 34 60
100 100 100 100 100 100 100 100 100 100 100 89 99 67 90 99 100 100 100 100 100 100 91 56 81 60 63 66 91 91 19 5 5 28 72 83 94 94 100 99 10 5 13 2 38 77 6
100 100 100 100 100 100 100 100 100 100 100 100 100 100 100 100 100 92 98 53 79 97 100 100 100 100 93 100 94 55 97 16 5 5 7 32 45 76 87 100 66 23 77 81 66 10 100
100 100 100 100 100 100 100 100 100 100 100 100 100 100 100 100 100 100 100 100 99 100 100 100 100 100 100 100 78 87 100 90 38 75 14 11 7 40 53 14 99 100 100 97 26 100 96

GFSGBSN_prec_cloud_024.txt.gz
Cloud_Cover
23 64 100 100 100 100 100 100 99 75 100 42 5 4 4 99 38 38 100 99 2 0 5 24 79 100 100 100 78 98 4 0 1 3 5 6 86 96 100 93 100 100 100 100 100 100 100
90 100 100 100 100 100 100 100 54 5 10 4 8 57 32 4 1 49 100 0 0 5 100 100 100 100 82 43 26 5 55 5 3 0 0 3 87 48 1 2 74 100 100 100 100 100 100
84 100 100 100 100 100 100 100 14 73 70 57 100 100 5 4 5 5 0 2 38 100 100 100 13 21 96 99 100 100 3 1 0 0 0 0 0 0 0 0 0 0 75 81 79 100 100
100 100 100 100 99 100 100 67 57 100 93 5 6 6 7 1 10 55 17 32 100 100 100 100 100 100 100 78 86 2 0 0 0 0 0 0 0 0 1 0 0 0 0 17 4 4 2
100 100 100 100 100 100 100 93 100 84 50 52 92 100 100 61 100 100 100 100 100 100 100 100 94 58 54 4 4 0 0 0 0 0 0 0 0 0 0 0 0 0 60 70 0 4 5
98 100 92 100 100 100 42 100 98 25 100 100 100 100 98 99 100 100 100 100 100 100 97 3 0 1 0 1 5 0 0 0 0 0 0 0 0 0 0 20 100 100 38 10 1 1 0
94 100 100 100 100 100 28 100 100 100 100 100 100 100 100 100 100 100 100 100 100 86 98 2 4 1 1 2 5 4 2 1 5 2 0 0 8 87 11 0 0 0 0 0 4 0 0
73 100 100 100 100 77 86 20 100 100 100 100 100 100 100 100 100 100 91 44 6 17 6 1 3 7 45 27 36 48 74 51 5 4 5 5 4 0 0 0 0 0 0 1 0 0 0
100 100 100 100 83 78 56 67 99 100 100 100 100 100 100 100 100 100 59 24 4 0 5 7 81 100 90 77 73 46 20 16 4 3 1 0 1 0 0 0 0 0 0 0 0 0 0
68 100 100 100 48 77 81 41 100 100 100 100 100 100 100 100 7 5 3 0 0 5 58 76 99 83 57 41 7 5 1 1 0 0 0 0 0 0 0 0 0 0 0 0 0 0 10
100 100 100 72 5 25 100 100 100 100 100 100 100 100 56 5 14 2 5 3 14 99 100 100 79 28 5 5 0 0 0 0 0 0 0 0 0 0 0 0 0 0 0 0 0 0 0
100 100 100 95 5 100 100 100 100 100 100 100 100 44 6 5 5 76 61 99 99 100 80 48 37 5 1 0 0 0 0 0 0 0 0 0 0 0 0 0 0 0 0 0 0 0 0
100 100 100 81 13 100 100 100 100 100 100 81 9 64 34 65 84 90 100 100 92 48 21 11 5 0 0 0 0 0 0 0 1 2 1 0 0 0 0 1 0 0 0 11 65 71 12
100 100 100 66 100 100 100 100 100 79 99 93 93 97 54 84 100 100 88 72 46 72 40 5 2 0 0 0 0 0 0 0 0 0 6 6 8 0 0 0 0 0 0 2 2 10 32
100 100 100 100 100 100 100 100 100 83 5 44 87 96 100 100 100 100 69 79 85 70 45 5 0 0 0 0 0 0 0 0 0 0 1 0 2 0 0 0 0 9 3 0 0 0 0
100 100 100 100 100 100 100 100 100 75 20 100 100 100 100 100 100 100 95 64 68 36 5 1 0 0 2 0 0 4 0 0 0 0 0 0 4 0 0 0 0 0 0 2 87 9 5
100 100 100 100 100 100 100 100 100 68 100 100 100 100 100 100 100 98 83 78 84 27 5 0 4 0 5 1 5 5 2 0 0 0 0 0 0 0 0 0 0 0 4 2 2 2 2
100 100 100 100 100 100 100 100 100 100 100 100 100 100 100 99 86 82 100 92 91 11 2 0 0 0 5 0 5 2 0 0 0 0 0 0 0 0 0 0 0 0 0 3 5 0 0
100 100 100 100 100 100 100 100 100 100 100 100 100 100 100 74 60 50 63 99 43 5 2 0 1 2 2 5 3 5 5 2 0 0 0 0 0 0 0 1 0 0 2 4 1 0 0
100 100 100 100 100 100 100 100 100 100 100 100 100 90 67 71 74 7 14 64 5 5 2 0 5 5 4 3 5 5 3 1 0 0 0 0 0 3 1 2 1 0 0 4 4 5 5
100 100 100 100 100 100 100 100 100 100 100 100 97 99 38 89 9 5 5 5 5 5 0 5 5 5 16 5 5 5 5 0 0 0 0 0 0 0 0 0 0 0 0 0 0 5 77
100 100 100 100 100 100 100 100 100 100 100 100 74 72 5 51 58 28 14 21 6 5 5 5 5 5 15 5 5 5 0 0 0 0 0 0 0 0 0 0 0 3 0 0 0 5 61
100 100 100 100 100 100 100 88 100 100 100 100 98 43 56 15 39 70 28 32 64 12 10 5 5 5 18 6 5 0 0 0 0 0 1 0 0 1 2 6 4 1 0 0 5 77 52
100 100 100 100 100 100 100 100 100 100 100 100 96 9 29 27 15 13 35 43 47 5 5 5 5 5 9 32 5 5 5 1 4 3 4 3 5 27 7 42 5 2 5 5 5 32 12
100 100 100 100 100 100 93 100 100 100 100 100 100 95 6 98 38 34 11 44 8 7 31 5 5 5 5 6 5 5 20 5 5 5 5 5 5 29 71 5 5 0 7 5 4 4 16
100 100 100 100 100 100 100 100 100 100 100 100 100 100 31 80 96 42 50 18 6 5 5 5 5 6 47 32 26 8 9 5 33 5 5 5 5 3 46 52 4 0 16 8 5 5 58
100 100 100 100 100 100 100 100 100 100 100 100 100 100 96 82 56 100 100 100 100 95 98 85 98 100 100 63 91 84 80 63 39 18 72 36 84 40 100 100 11 2 5 5 5 25 12
100 100 100 100 100 100 100 100 100 100 100 100 100 100 100 100 54 30 80 87 99 79 99 73 90 100 97 99 100 100 100 100 99 23 7 22 27 73 89 93 32 4 44 73 42 10 64
100 100 100 100 100 100 100 100 100 100 100 100 100 100 100 100 100 45 56 90 92 100 76 62 17 48 12 100 100 84 89 76 77 63 47 5 7 7 5 5 57 100 95 15 74 47 82

GFSGBSN_prec_cloud_027.txt.gz
Cloud_Cover
0 0 0 0 1 18 75 88 92 100 100 100 100 49 3 5 5 68 100 82 100 100 83 100 5 0 1 1 56 23 90 100 76 10 2 60 100 100 100 100 100 100 100 100 100 100 100
0 0 0 0 8 96 70 53 100 99 100 100 71 5 9 5 11 96 58 99 100 24 4 5 5 3 44 93 100 100 74 5 0 3 3 1 18 100 100 100 100 100 100 100 100 100 100
0 0 0 0 5 100 93 44 58 100 100 91 68 44 7 94 6 5 3 97 2 0 3 31 97 98 100 100 65 4 5 77 59 74 50 3 4 47 5 91 100 98 97 100 100 100 100
0 0 0 0 100 100 100 25 80 100 92 80 100 100 100 90 0 0 5 0 11 100 100 100 100 100 100 100 100 100 100 100 93 89 4 0 0 0 0 0 0 10 89 71 100 100 96
0 0 0 5 84 100 96 5 100 100 90 68 98 5 5 0 0 0 4 49 100 100 100 100 100 96 96 100 100 100 98 31 4 1 0 0 0 0 0 2 2 72 100 31 24 5 0
0 0 0 5 86 100 100 100 100 56 32 82 97 100 80 3 66 82 94 95 100 100 100 100 100 100 100 100 69 93 15 3 0 0 0 0 0 4 58 2 14 12 59 67 3 0 0
0 0 8 100 93 100 100 100 100 77 28 100 100 100 96 100 100 94 91 100 100 100 100 100 79 100 70 57 29 50 5 5 0 0 0 0 1 5 0 0 26 16 30 4 0 0 0
0 0 3 42 95 92 100 100 48 32 98 99 93 100 100 100 100 100 98 100 100 100 79 49 4 4 5 49 5 5 1 1 2 0 0 2 0 5 5 1 0 3 1 0 0 0 0
0 0 5 89 100 100 100 100 96 37 100 41 100 100 100 100 100 100 100 100 92 12 64 64 99 4 4 28 31 19 5 5 5 3 2 5 3 3 0 0 0 0 0 0 0 0 0
0 13 88 100 100 100 100 37 76 78 100 100 100 100 100 100 100 100 100 56 100 100 50 34 65 62 10 67 63 9 5 5 5 4 5 2 0 0 0 0 0 0 0 0 0 0 0
94 82 100 100 100 100 51 64 100 100 94 100 100 100 100 100 100 10 7 5 49 94 64 92 100 91 34 60 23 41 5 5 2 2 0 0 0 0 0 0 0 0 0 0 0 0 0
91 5 95 38 100 98 21 32 100 100 100 100 100 100 100 100 46 68 48 0 5 96 76 99 62 60 86 71 57 5 4 0 0 0 0 0 0 0 0 0 0 0 0 0 0 0 0
99 88 100 100 100 46 31 99 100 100 100 100 100 100 100 28 13 3 3 5 75 98 98 60 64 78 78 52 6 0 0 0 0 0 0 0 0 0 0 0 0 0 0 0 3 4 82
100 98 100 100 100 100 100 100 100 100 100 100 100 100 97 5 1 9 58 100 95 54 32 22 46 71 14 2 0 0 0 0 0 1 4 3 0 0 0 0 0 0 0 0 0 2 5
85 100 100 100 100 100 100 100 100 100 100 100 100 5 5 5 11 99 96 90 78 23 53 19 6 5 4 0 0 0 0 0 0 0 0 5 0 0 0 0 0 0 0 0 0 0 0
100 100 100 100 100 100 100 100 100 100 100 100 51 37 5 13 99 100 42 9 50 66 25 5 6 3 0 0 0 0 0 0 0 0 0 0 0 0 0 0 0 0 0 0 1 0 1
100 100 100 100 100 100 100 100 100 100 100 7 47 93 37 100 100 98 46 51 28 5 15 37 5 1 39 4 4 42 2 0 0 0 0 0 0 0 0 0 0 0 0 0 0 0 2
100 100 100 99 100 100 100 100 100 100 28 80 68 99 49 79 97 100 22 41 5 20 15 5 4 0 8 5 5 4 3 0 0 0 0 0 0 0 0 0 0 0 0 1 0 0 0
100 100 100 100 100 100 100 100 100 100 5 94 100 90 97 100 100 100 74 37 5 29 39 5 2 0 0 0 3 5 5 5 1 0 0 0 0 0 0 0 0 0 0 0 0 2 0
100 100 100 100 100 100 100 100 100 86 98 95 91 100 100 100 100 82 99 92 32 5 32 5 1 0 0 0 2 5 6 5 5 1 0 0 0 0 0 2 1 0 0 0 0 0 1
100 100 100 100 100 100 100 100 100 95 48 100 100 100 100 100 100 84 49 45 33 7 7 5 1 5 4 4 5 5 5 2 5 5 4 0 0 0 0 0 0 0 0 0 0 0 1
100 100 100 100 100 100 100 100 100 68 100 100 100 100 100 100 80 64 54 11 6 22 5 5 0 0 4 5 5 5 5 5 0 0 0 0 0 0 0 0 0 0 0 0 0 0 0
100 100 100 100 100 100 100 100 100 100 100 100 100 100 100 73 90 61 5 5 5 5 5 5 5 5 5 5 5 4 1 0 0 0 0 0 0 5 5 6 4 0 0 0 1 0 3
100 100 100 100 100 100 100 100 100 100 100 100 100 100 100 52 100 95 5 5 5 5 5 6 7 5 5 7 5 5 5 5 5 4 5 5 5 62 15 14 5 0 2 0 4 0 5
100 100 100 100 100 100 100 100 100 100 100 100 100 100 61 100 7 5 5 5 23 38 46 5 5 62 75 22 6 5 5 5 5 5 5 5 9 37 32 10 4 0 5 5 5 5 5
100 100 100 100 100 100 100 100 100 100 100 100 100 100 61 50 16 25 7 70 47 71 6 8 14 61 66 25 38 45 27 30 31 86 100 100 50 22 5 11 5 1 5 27 5 0 5
100 100 100 100 100 100 100 100 100 100 100 100 100 100 94 70 18 5 5 11 5 25 74 53 16 76 63 81 100 100 100 83 82 100 100 38 38 38 5 5 4 0 3 5 5 4 5
100 100 100 100 100 100 100 100 94 100 100 100 100 100 100 100 98 5 83 22 39 27 44 38 77 54 93 32 100 99 35 9 89 100 100 21 30 27 24 25 23 5 9 5 5 5 5
100 100 100 100 100 100 100 100 100 100 100 100 100 100 100 100 100 100 92 45 63 92 100 21 32 100 57 100 100 94 100 100 100 100 100 72 98 100 99 74 4 1 5 5 5 5 5

GFSGBSN_prec_cloud_030.txt.gz
Cloud_Cover
0 0 0 0 0 3 0 0 3 5 5 54 91 86 100 96 5 3 87 52 6 3 100 52 100 98 3 1 0 0 59 94 18 79 20 7 100 100 100 100 100 100 100 100 100 100 100
0 0 0 0 0 0 0 0 0 7 13 61 7 93 61 6 5 5 46 38 89 52 100 75 87 100 4 25 11 16 85 64 100 100 100 87 86 79 100 100 100 100 100 100 100 100 100
0 0 0 0 0 0 0 0 5 14 44 74 5 41 8 5 5 5 67 100 76 20 5 51 7 7 90 97 67 71 84 98 85 100 100 100 100 89 100 100 100 100 100 100 97 100 100
0 0 0 0 0 0 0 0 1 65 63 5 62 5 6 5 14 52 26 90 5 1 0 4 74 100 100 99 100 100 100 100 100 100 64 100 35 86 94 100 100 100 100 100 100 100 100
0 0 0 0 0 0 0 2 3 86 87 88 24 20 5 94 78 9 4 3 0 16 48 100 100 100 100 100 100 100 100 100 88 98 95 20 5 5 6 42 100 100 100 100 100 100 100
0 0 0 0 0 0 0 4 6 86 100 7 18 5 4 27 2 3 0 5 99 100 100 100 100 100 100 100 87 97 97 100 78 6 5 4 4 5 5 4 5 3 4 25 62 27 3
0 0 0 0 0 0 0 1 28 100 52 5 42 60 5 0 4 5 33 98 100 98 100 100 89 93 99 100 100 100 100 68 5 4 35 14 4 4 0 5 5 6 2 3 0 0 0
0 0 0 0 0 0 4 4 100 100 20 9 33 100 34 98 9 98 97 100 100 100 100 100 100 100 100 98 94 90 9 5 5 0 5 2 2 0 5 1 95 97 90 4 0 0 0
0 0 0 0 0 0 4 20 100 100 88 100 46 29 23 100 100 100 100 100 100 100 100 96 100 100 98 14 18 49 5 1 0 0 0 0 1 5 1 2 4 50 5 0 0 0 0
0 0 0 0 0 0 8 81 100 100 50 84 6 48 75 100 100 100 100 100 100 100 100 4 6 9 8 5 3 2 0 5 5 5 5 3 4 2 5 3 0 0 0 0 0 0 0
0 0 0 0 0 3 53 100 100 91 97 82 77 100 30 100 78 98 100 100 62 65 8 5 5 5 5 5 10 6 5 6 6 5 5 0 0 0 0 0 0 0 0 0 0 0 0
0 0 0 0 0 5 90 100 100 11 62 41 100 99 98 100 100 100 100 71 100 100 74 10 35 53 36 6 7 19 5 5 2 2 0 0 0 0 0 0 0 0 0 0 0 0 0
57 0 0 0 2 14 100 100 100 91 42 82 100 100 100 100 100 100 73 82 54 85 60 64 47 56 72 68 55 7 5 5 0 0 0 0 0 0 0 0 0 0 0 0 1 3 4
4 0 0 0 5 99 100 100 100 100 100 100 100 100 100 100 100 100 93 8 7 93 93 13 86 78 51 76 61 12 1 0 0 0 0 0 2 0 0 0 0 0 0 0 0 2 5
0 2 0 4 96 100 100 100 100 100 100 100 100 95 100 100 21 16 5 14 48 39 76 75 29 60 88 73 5 2 0 0 0 3 0 0 0 0 0 0 0 0 0 0 0 0 0
2 100 38 51 100 100 100 100 100 100 100 100 100 100 100 91 10 5 11 88 90 72 6 35 60 92 78 8 4 0 0 0 0 0 0 0 0 0 0 0 0 0 0 0 0 0 1
6 84 100 56 100 100 100 100 100 100 100 100 100 100 100 15 36 77 37 41 6 19 59 63 34 9 5 3 0 0 0 0 0 0 0 0 0 0 0 0 0 0 0 0 0 0 2
100 100 100 100 100 100 100 100 100 100 95 100 100 100 69 5 88 92 49 64 7 9 7 73 31 5 5 5 0 0 0 0 0 0 0 0 0 0 0 0 0 0 0 0 0 0 0
100 100 100 100 100 100 100 100 100 100 100 100 100 51 5 83 100 67 23 25 55 5 16 59 14 5 0 5 1 0 0 1 1 0 0 0 0 0 0 0 0 0 0 0 2 2 0
100 100 99 100 100 100 100 100 100 100 100 100 91 11 54 100 94 49 44 44 29 5 15 34 8 5 5 0 0 2 5 5 5 5 5 1 2 0 0 0 0 0 0 5 4 5 3
100 100 100 100 100 100 100 100 100 100 99 97 80 100 100 100 100 100 98 46 5 5 5 9 45 5 4 4 5 5 5 5 5 5 5 5 4 0 0 1 5 5 5 0 0 0 0
100 100 100 100 100 100 100 100 100 100 13 27 100 100 56 100 58 99 54 31 23 6 5 10 89 40 16 6 3 0 5 5 5 5 5 0 0 0 0 0 5 5 0 0 0 0 0
100 100 100 100 100 100 100 100 100 100 45 97 100 78 95 100 100 100 91 44 38 72 98 100 52 5 5 4 5 5 5 5 5 5 4 2 4 3 5 5 5 5 1 0 0 3 4
100 100 100 100 100 100 100 100 100 100 78 100 100 98 100 100 100 100 27 5 5 100 97 59 5 5 32 5 5 5 9 15 21 5 23 14 18 41 5 5 8 5 4 0 0 5 0
100 100 100 100 100 100 100 100 100 100 100 100 100 100 100 100 100 98 28 100 8 32 21 6 21 54 51 15 39 59 65 99 40 13 5 5 44 86 14 6 5 5 5 5 5 26 5
100 100 100 100 100 100 100 100 100 100 100 100 100 100 100 38 85 60 95 89 28 64 14 7 72 85 38 30 77 72 80 46 35 100 98 65 33 6 84 6 5 8 5 32 9 99 94
100 100 100 100 100 100 100 100 100 100 100 100 100 100 100 96 92 14 96 100 15 6 32 44 59 80 74 64 45 40 13 44 100 59 5 38 16 89 97 39 71 6 5 5 26 6 5
100 100 100 100 100 100 100 100 100 100 100 100 100 100 100 83 53 41 100 100 67 5 5 5 44 100 92 79 57 84 33 74 70 77 76 100 100 100 100 100 30 7 24 63 15 59 63
100 100 100 100 100 100 100 100 100 100 100 100 100 100 100 100 69 68 87 100 99 57 5 5 64 7 5 34 61 87 44 84 99 97 100 100 100 100 100 100 96 78 74 10 96 100 60

GFSGBSN_prec_cloud_033.txt.gz
Cloud_Cover
6 5 0 0 0 0 4 7 0 0 0 0 0 8 31 22 19 5 5 4 7 100 12 0 100 27 7 26 1 0 21 11 92 89 18 46 99 100 100 100 100 100 100 100 100 100 98
87 3 2 0 0 0 1 0 0 0 0 0 1 14 20 22 6 5 2 0 6 100 44 3 28 100 73 23 2 5 26 93 95 100 96 100 100 100 100 100 100 100 100 100 100 95 87
41 74 4 0 0 0 0 0 0 0 0 0 7 4 13 5 5 3 1 5 22 100 100 32 100 55 83 95 40 76 90 100 100 100 100 100 100 87 99 100 100 100 100 100 100 100 100
5 7 4 0 0 0 0 0 0 0 0 0 4 5 64 9 5 5 11 30 100 100 100 5 8 34 99 94 14 26 69 100 100 100 100 100 100 100 100 100 100 100 100 100 100 100 100
0 0 2 0 0 0 0 0 0 0 0 0 2 20 100 64 5 5 12 24 100 65 0 1 28 35 100 100 100 100 100 100 100 100 100 100 92 100 100 100 86 96 100 100 100 100 100
0 0 0 0 0 0 0 0 0 0 0 0 8 29 64 8 5 22 13 5 5 0 50 100 100 96 86 99 93 88 96 100 100 100 100 100 95 25 60 16 26 49 95 100 100 100 100
0 0 0 0 0 0 0 0 0 0 0 3 5 5 5 5 5 1 0 0 2 73 98 100 98 100 96 100 100 100 100 85 69 100 39 97 8 4 5 5 5 5 5 5 56 92 100
0 0 0 0 0 0 0 0 0 0 2 6 5 5 4 5 4 5 2 91 71 94 99 97 100 100 100 65 71 54 100 100 100 78 3 5 4 4 14 14 5 5 5 5 9 6 33
5 1 0 0 0 0 0 0 0 0 4 5 98 5 14 9 0 87 61 98 100 100 100 100 100 100 100 100 100 100 86 49 17 5 1 0 0 0 96 4 31 3 5 5 1 0 0
5 3 0 0 0 0 0 0 0 0 22 30 97 15 5 2 73 100 80 96 35 100 100 100 100 100 100 36 18 8 5 3 0 0 0 0 0 0 0 3 0 0 0 0 0 0 0
86 4 2 0 0 0 0 0 0 1 68 100 97 94 7 100 100 100 51 89 99 92 99 98 90 80 6 40 26 5 0 0 1 5 5 4 0 0 0 0 0 0 0 0 0 0 0
97 3 0 1 0 0 0 0 62 91 100 100 44 56 5 52 91 82 100 99 100 100 42 0 5 3 1 2 3 5 4 4 5 2 5 0 0 0 0 0 0 0 0 0 0 0 0
29 5 0 0 0 0 0 42 100 100 100 94 79 95 5 10 42 100 100 100 100 100 36 5 5 2 2 5 10 18 1 5 4 0 0 0 0 0 0 0 0 0 0 0 0 0 0
32 4 0 0 0 0 51 100 100 100 100 8 100 94 53 100 99 100 100 9 5 5 17 22 8 27 42 41 5 5 5 5 5 1 0 0 0 0 0 0 0 0 0 0 0 0 0
93 6 0 0 0 88 73 98 100 100 100 6 78 86 100 100 100 100 40 10 5 6 36 23 59 94 53 24 56 5 5 2 0 0 0 0 0 0 0 0 0 0 0 0 0 0 3
100 62 3 0 100 100 67 97 100 100 97 84 12 100 100 100 100 100 5 27 5 6 56 70 92 32 56 55 10 38 4 0 0 0 0 1 2 3 2 0 0 0 0 0 0 0 1
97 77 17 64 100 100 81 100 100 92 96 99 100 99 100 100 100 100 17 69 5 2 59 99 67 87 21 33 29 4 4 0 0 0 1 3 0 0 0 0 0 0 0 0 0 0 2
9 100 38 90 65 100 99 100 100 99 50 99 100 100 100 100 39 25 5 26 19 99 37 32 76 46 33 9 5 4 0 0 0 0 0 0 0 0 0 0 0 0 0 0 0 0 1
100 83 5 14 80 100 100 100 100 100 100 100 100 100 100 100 79 5 5 79 74 27 56 64 55 43 68 25 4 0 0 0 5 4 0 0 0 0 0 1 5 1 0 0 0 0 0
6 5 4 67 100 100 100 100 100 99 100 100 100 100 100 100 5 12 46 75 77 92 100 85 49 57 24 5 5 0 0 0 0 5 0 0 2 5 4 5 5 5 3 2 0 0 0
77 5 40 85 100 100 100 100 100 100 94 100 100 100 100 100 95 100 76 76 97 81 71 61 78 68 12 5 0 0 0 3 5 5 5 5 8 5 5 4 1 0 0 0 0 0 0
4 8 43 100 100 100 100 100 99 100 100 100 100 100 100 16 100 99 87 80 85 71 57 60 68 15 5 5 5 5 0 3 5 5 5 36 56 5 0 0 0 4 0 0 2 5 0
33 100 100 100 100 100 100 100 84 100 99 100 100 100 23 85 100 76 57 80 99 95 78 66 6 5 5 33 33 5 5 5 5 5 5 5 5 10 5 6 18 8 4 5 5 5 5
78 100 100 100 100 100 100 100 96 100 100 100 100 97 49 100 97 76 77 100 96 91 100 19 5 5 86 96 47 5 5 5 5 5 27 16 5 9 5 5 39 15 8 5 5 13 5
97 100 100 100 100 100 100 100 100 100 100 100 100 100 100 100 100 48 97 61 90 100 83 5 7 86 100 32 5 5 5 5 6 64 15 5 5 45 62 24 9 87 5 5 5 50 5
100 100 100 100 100 100 100 100 100 100 100 100 100 99 60 44 26 80 69 100 94 62 65 56 18 6 82 5 5 5 53 93 88 73 5 50 98 11 80 5 19 100 16 55 81 98 82
100 100 100 100 100 100 100 100 100 100 100 100 100 100 28 45 100 100 100 100 61 9 12 38 60 6 62 74 84 74 99 71 63 40 25 64 23 5 95 29 100 100 40 58 94 9 42
100 100 100 100 100 100 100 100 100 100 100 100 99 76 69 82 100 100 100 100 84 5 42 16 84 96 20 68 97 67 53 75 100 100 100 55 51 94 61 100 100 100 98 97 54 5 19
100 100 100 100 100 100 100 100 100 100 100 100 100 100 100 100 100 100 100 100 100 5 5 26 87 6 6 15 34 59 100 98 34 89 72 54 83 91 100 100 100 85 35 45 26 39 23

GFSGBSN_prec_cloud_036.txt.gz
Cloud_Cover
2 11 16 17 79 68 77 24 5 0 0 0 0 0 12 30 100 34 10 18 5 4 1 56 23 5 10 25 17 3 0 2 5 0 7 100 98 98 100 100 97 100 100 100 100 100 100
5 34 13 50 82 100 39 5 1 0 0 0 0 0 16 30 28 6 5 56 4 5 17 100 100 5 53 80 50 1 0 5 39 96 100 100 100 100 100 100 100 100 100 100 100 100 100
6 69 10 97 100 48 63 13 5 0 0 0 0 3 5 2 5 0 61 50 5 5 64 100 100 26 98 100 75 0 16 84 100 94 100 100 100 100 100 100 100 100 100 100 100 100 100
5 75 100 42 2 0 0 4 5 2 0 0 0 15 0 0 0 3 15 37 67 60 98 100 100 100 100 95 16 76 100 100 51 100 100 100 100 100 100 100 100 100 100 100 100 100 100
5 5 77 9 1 0 0 0 1 0 0 0 0 0 0 0 0 4 5 5 56 85 100 100 74 88 99 39 90 100 80 81 100 98 100 100 97 100 100 100 100 100 100 100 100 100 100
3 5 72 16 0 0 0 4 0 0 0 0 0 0 0 0 0 2 3 5 98 99 100 21 3 99 13 15 33 100 100 100 89 77 100 100 100 100 100 98 98 89 100 100 100 100 100
18 5 5 1 0 0 0 0 0 0 0 0 0 0 0 0 4 0 2 91 25 100 5 100 96 6 93 100 100 100 72 62 46 88 100 100 100 100 100 100 94 63 64 87 100 100 100
6 2 5 4 0 0 0 0 0 0 0 0 0 0 4 0 4 0 1 14 5 1 12 82 89 100 99 81 95 100 18 63 100 100 100 98 81 73 5 5 5 5 5 18 69 69 100
84 1 5 1 0 0 0 0 0 0 0 0 0 0 5 2 1 0 3 2 34 99 100 100 100 95 100 43 84 37 42 60 98 100 85 10 51 5 2 3 5 5 42 78 43 71 91
100 5 5 4 0 0 0 0 0 0 0 0 0 0 5 5 3 0 60 98 100 100 98 100 100 99 84 100 100 100 100 68 83 96 17 4 3 1 5 4 2 1 0 1 3 5 5
100 96 13 5 0 0 0 0 0 0 0 0 0 2 6 76 4 34 100 100 57 92 99 97 100 100 100 99 92 5 5 5 5 5 5 3 0 0 2 0 0 0 0 0 0 0 4
100 100 73 27 4 0 0 0 0 41 79 0 0 27 41 71 2 57 90 67 46 99 100 100 100 100 95 8 15 12 54 3 3 0 0 1 0 0 0 3 0 0 0 0 0 0 0
100 100 93 96 48 0 0 0 20 100 100 8 0 100 5 50 3 51 5 72 100 100 100 99 99 34 28 5 4 0 1 4 5 1 0 5 4 0 0 0 0 0 0 0 0 0 0
100 100 100 100 83 0 0 0 100 100 100 9 10 96 5 4 5 83 79 100 100 100 6 6 5 5 1 0 1 5 5 5 5 4 0 0 0 0 0 0 0 0 0 0 0 3 3
100 100 89 24 61 0 0 59 100 100 100 5 86 86 27 5 3 28 99 100 100 94 5 5 5 6 5 5 5 5 6 3 4 0 0 0 0 0 0 0 0 0 0 0 0 0 2
100 100 100 87 2 0 21 100 100 100 57 23 100 31 86 87 6 98 100 99 89 23 5 5 5 9 33 5 5 0 0 2 4 0 0 0 0 0 0 0 0 0 0 0 0 0 0
100 100 100 100 3 13 100 100 100 100 9 33 93 6 97 100 92 100 100 13 3 0 5 5 31 11 5 5 4 5 5 3 0 0 0 0 0 0 0 0 0 0 0 0 0 1 2
100 100 100 72 22 100 100 100 100 100 1 98 55 83 44 78 100 100 81 32 5 5 5 84 10 5 5 5 5 5 5 0 0 0 0 0 0 0 0 0 0 0 0 0 0 0 4
100 100 100 64 100 100 100 100 100 97 92 72 9 94 79 97 100 100 81 5 5 12 63 23 6 39 10 50 23 5 5 1 0 0 0 0 0 0 0 0 0 0 0 0 0 0 0
100 100 100 84 100 100 100 100 100 100 78 22 96 94 66 100 100 99 97 5 5 85 80 69 61 65 74 45 13 5 0 0 0 0 0 0 0 0 0 3 5 5 5 0 0 0 0
100 100 35 98 100 100 100 100 100 100 20 99 98 55 98 100 100 18 98 13 13 100 74 80 17 59 26 5 7 5 4 0 0 0 0 0 4 5 5 8 49 8 0 0 0 2 4
100 100 16 100 100 100 100 100 100 100 75 100 100 100 100 100 100 25 68 5 96 100 97 65 42 56 38 64 38 5 5 4 5 21 53 41 26 5 5 5 4 4 0 5 5 5 5
98 84 100 100 100 100 100 100 100 100 100 95 100 100 100 100 100 6 7 96 100 64 99 57 45 5 39 81 80 73 12 5 10 5 5 71 92 83 56 5 5 63 5 5 5 5 5
100 100 100 100 100 100 100 100 100 100 100 100 100 100 100 98 100 80 55 100 75 47 100 29 18 40 89 68 72 28 6 5 5 5 64 48 53 52 29 5 38 66 100 5 5 5 5
100 100 100 100 100 100 100 100 100 100 100 100 100 100 100 100 93 13 14 97 99 96 100 40 76 26 55 66 12 16 49 76 9 65 54 5 5 15 20 21 31 100 100 3 3 90 66
100 100 100 100 100 100 100 100 100 100 100 100 100 100 100 100 24 7 57 100 96 82 12 27 33 5 33 59 5 8 77 79 86 99 5 5 5 5 57 8 29 100 80 6 19 97 100
100 100 100 100 100 100 100 100 100 100 100 100 100 100 100 73 42 45 88 100 94 46 84 36 5 23 15 25 91 68 62 31 63 34 16 84 64 20 89 7 96 88 5 6 68 66 98
100 75 81 100 100 100 100 100 100 100 100 100 100 100 100 76 60 55 88 100 99 58 46 70 58 62 51 80 24 14 47 28 68 55 25 31 94 100 62 46 89 6 5 14 82 100 100
100 93 100 100 100 100 100 100 100 100 100 100 100 100 100 100 67 96 99 100 100 62 97 99 82 9 11 33 86 72 93 87 58 82 42 5 15 6 45 6 5 58 100 100 100 73 89

GFSGBSN_prec_cloud_039.txt.gz
Cloud_Cover
92 18 41 5 4 3 1 0 0 95 2 2 0 0 0 11 100 100 44 0 0 0 11 5 21 8 11 0 0 0 0 4 0 4 19 100 100 99 99 100 100 100 100 100 100 100 100
32 6 5 5 5 0 1 5 5 5 4 0 0 0 0 8 39 6 4 0 0 18 93 66 23 66 18 4 13 83 58 5 4 84 48 100 100 100 100 100 100 100 100 100 100 100 100
5 5 5 1 5 0 5 5 6 34 100 59 4 0 0 25 25 2 1 0 2 75 5 6 5 67 99 73 7 88 5 0 100 98 99 91 100 100 100 100 100 100 100 100 100 100 100
7 5 3 2 2 3 5 93 5 11 5 92 4 0 0 14 0 0 0 0 2 7 49 95 96 100 91 5 36 31 99 100 100 73 100 100 100 100 100 100 97 100 100 100 100 100 100
100 4 2 2 1 5 5 90 100 83 49 3 0 0 0 0 0 0 0 1 1 65 100 100 100 100 100 22 3 31 100 100 100 100 100 90 100 99 100 100 100 100 100 100 100 100 100
100 55 0 0 5 5 48 98 100 76 3 0 0 0 0 0 0 0 0 0 0 65 100 100 100 98 52 32 65 100 100 100 100 100 100 100 100 100 100 100 100 100 100 100 100 100 100
99 100 20 0 3 1 52 5 100 100 27 0 0 0 0 0 0 0 0 2 0 96 100 100 100 52 5 36 61 100 11 100 100 100 100 100 100 100 100 100 100 100 100 95 48 36 62
56 100 42 19 1 70 100 100 6 19 39 5 0 4 0 0 0 0 0 2 0 4 90 74 28 66 40 53 100 100 100 100 100 100 86 94 100 100 100 100 100 100 88 44 58 75 42
83 100 100 100 100 100 100 100 72 5 5 5 0 2 0 0 0 3 1 0 0 0 2 91 88 79 100 86 87 74 53 97 97 100 100 100 100 100 100 100 92 72 99 93 84 100 100
96 64 100 53 97 51 100 100 35 39 5 3 4 2 4 0 0 0 3 0 0 0 41 48 97 98 44 5 74 42 19 95 98 100 100 32 28 71 70 62 70 26 16 13 37 38 70
100 100 100 100 19 94 20 3 0 1 5 5 5 2 0 0 0 2 22 0 5 25 5 19 33 100 100 100 100 100 100 94 90 83 73 3 2 1 0 4 5 31 5 16 10 5 10
100 100 100 100 82 5 5 5 0 3 34 62 5 0 0 2 0 4 4 0 5 15 13 67 79 100 98 100 100 100 100 64 8 42 4 5 5 4 0 0 1 0 0 0 0 2 3
100 100 100 100 100 68 7 5 4 1 41 100 77 0 2 0 0 5 4 0 5 41 38 84 100 100 100 100 67 69 77 68 31 5 3 0 0 0 0 0 0 0 0 5 4 5 2
8 100 100 100 100 100 82 5 5 4 99 100 84 3 2 0 4 5 0 7 69 62 99 92 100 100 44 96 62 32 8 1 0 0 0 0 0 0 0 0 0 0 0 0 0 0 0
5 88 100 100 99 100 100 99 5 11 100 100 39 58 0 0 10 4 0 83 99 100 100 100 100 18 38 30 4 0 0 1 5 3 1 0 0 0 0 0 0 0 0 0 0 0 0
5 100 80 100 100 100 76 100 51 99 100 79 31 6 0 0 22 2 0 89 96 100 96 78 7 5 4 1 3 5 5 3 1 0 0 1 0 0 0 0 0 0 0 0 0 0 0
5 100 100 97 100 100 100 100 55 100 100 40 0 0 0 3 8 0 28 90 100 100 26 5 5 5 5 5 5 5 3 0 0 0 0 0 0 0 0 0 0 0 0 0 0 0 0
5 98 100 100 100 100 99 100 100 100 100 95 0 0 18 59 4 30 99 99 100 98 59 3 4 5 18 5 5 5 3 0 0 0 0 0 0 0 0 0 0 0 0 0 0 0 1
6 100 100 100 100 100 100 100 100 100 67 8 0 14 9 43 4 96 100 100 99 63 14 5 6 5 5 5 5 4 5 3 0 0 0 0 0 0 0 0 0 0 0 0 0 0 0
75 100 100 100 100 100 100 100 100 100 18 0 0 2 41 5 20 100 100 100 100 54 13 44 18 5 5 5 5 5 5 5 0 0 0 0 0 0 0 0 0 0 0 0 0 0 0
100 100 100 100 100 99 100 100 100 100 53 0 0 11 94 7 88 100 100 100 64 59 93 76 13 5 5 5 5 5 5 3 0 0 1 0 0 0 0 3 5 5 5 5 0 0 5
100 100 100 100 100 100 100 100 100 100 89 8 99 96 46 100 100 100 100 100 5 70 90 21 5 5 5 5 5 5 5 5 5 0 5 5 5 3 5 12 70 89 5 5 5 5 5
100 100 100 100 90 100 100 100 100 100 14 100 100 97 100 100 100 100 100 100 54 58 100 5 5 5 5 7 5 5 8 5 5 5 6 5 5 6 40 5 100 100 5 5 5 5 5
100 100 100 100 100 100 100 100 100 82 100 100 100 100 100 70 100 100 100 100 5 95 46 5 5 13 51 26 44 8 10 5 5 8 54 5 10 49 44 5 96 100 97 2 5 5 5
100 100 100 100 100 100 100 100 100 100 100 100 100 100 99 100 100 100 100 55 5 80 70 5 16 82 57 47 54 30 24 9 5 18 35 5 5 17 95 17 66 100 100 22 5 23 5
100 100 100 100 100 100 100 100 100 100 100 100 100 100 98 100 100 100 93 5 8 100 80 8 21 55 67 61 16 29 44 11 40 93 63 32 10 9 95 6 60 100 100 6 5 52 92
100 100 100 100 100 100 100 100 100 100 100 100 100 100 100 100 100 100 17 53 71 98 85 22 64 82 43 57 64 69 46 5 59 98 41 76 64 35 8 5 58 41 5 22 85 100 100
100 100 100 100 100 100 100 100 100 100 100 100 100 100 100 100 100 100 46 73 98 100 18 38 80 59 86 73 25 9 40 76 48 34 14 5 34 38 36 76 30 5 5 77 100 92 54
100 100 100 100 100 100 100 100 100 100 100 100 100 100 100 100 100 94 5 66 99 65 44 72 100 72 73 24 61 76 72 31 46 83 5 42 5 61 13 91 5 5 19 25 25 99 100

GFSGBSN_prec_cloud_042.txt.gz
Cloud_Cover
71 100 71 21 8 4 4 4 3 4 0 0 0 0 2 3 5 39 86 20 0 0 0 11 2 5 12 3 0 0 0 0 2 5 5 3 3 100 100 97 100 100 96 100 100 100 100
100 100 98 5 5 5 2 4 5 1 4 4 0 0 5 0 0 11 0 0 0 0 0 0 0 3 5 34 3 2 1 5 5 58 50 5 7 97 100 100 100 100 100 100 100 100 100
100 100 100 92 5 5 1 5 5 5 4 1 0 87 45 14 5 5 0 0 0 0 0 0 2 16 99 98 59 5 0 6 5 100 62 8 85 100 100 100 100 100 100 100 100 100 100
100 100 100 18 3 5 5 21 18 2 5 0 4 23 83 11 96 70 0 0 0 0 0 13 100 100 100 100 72 48 5 13 22 83 100 100 100 100 100 100 100 100 100 100 100 100 100
6 42 100 100 5 5 45 50 51 12 17 1 5 5 32 100 53 1 0 0 0 0 0 29 100 100 100 100 65 2 42 75 81 40 100 100 100 100 100 100 100 100 100 100 100 100 98
4 100 94 100 81 33 42 43 6 5 5 5 5 10 24 100 4 0 0 0 0 4 0 0 25 83 100 100 92 67 92 100 100 18 96 100 100 100 100 100 100 100 100 100 100 100 100
0 29 38 100 100 100 100 49 7 14 5 5 18 95 100 100 0 2 5 0 0 0 0 4 18 56 100 100 5 100 100 91 100 100 100 100 100 100 100 100 100 100 100 100 100 100 100
0 24 70 23 98 97 55 12 32 6 20 7 11 100 97 100 11 5 5 0 0 0 0 26 94 100 100 97 28 100 100 98 100 100 100 100 100 100 100 100 100 100 100 100 100 100 100
1 4 6 42 63 100 64 54 63 17 5 26 100 100 100 100 97 6 5 0 0 0 0 2 2 5 60 5 22 100 100 96 94 100 100 100 100 100 100 100 100 100 100 100 100 100 100
2 5 5 80 92 100 100 100 100 100 100 100 100 100 100 100 100 4 2 0 0 0 0 0 3 11 29 45 11 99 99 78 98 97 100 93 100 100 100 100 100 100 100 100 89 77 52
100 99 72 15 92 100 100 77 94 100 100 100 100 100 100 100 100 54 0 0 0 0 0 0 3 15 5 5 7 26 10 96 100 46 100 100 100 100 98 60 60 76 75 72 66 52 5
100 100 100 58 5 40 100 8 5 47 92 100 100 100 98 99 100 71 0 0 0 0 3 0 22 18 5 21 60 80 97 95 100 100 100 89 83 62 52 51 26 13 12 68 46 18 4
100 100 100 100 91 62 100 83 97 92 100 100 100 100 98 21 100 5 0 0 2 0 5 90 4 6 84 98 100 77 87 100 100 92 36 7 3 1 4 5 42 24 5 1 0 0 2
100 100 100 100 100 100 100 100 100 100 100 100 100 100 100 45 5 1 0 0 2 0 5 45 53 13 5 6 28 31 81 100 100 92 5 2 1 3 4 2 0 3 4 5 5 3 3
100 100 100 100 100 100 100 100 100 100 100 100 100 100 86 9 10 0 0 2 5 0 20 93 58 22 88 100 33 8 5 5 8 5 0 0 0 0 1 5 5 5 4 4 1 0 0
97 100 100 100 100 100 100 100 100 100 100 98 97 100 39 97 95 19 3 2 1 27 100 86 94 100 95 57 6 5 4 0 0 0 0 2 4 2 3 3 0 0 0 0 0 0 0
78 100 100 100 100 100 100 100 100 100 100 100 93 100 100 100 100 55 12 0 0 97 100 100 100 43 9 16 6 0 0 4 4 5 1 0 3 0 0 0 0 0 0 0 0 0 0
100 100 100 8 87 100 100 100 100 100 100 96 32 100 100 100 100 6 5 0 1 100 100 100 22 56 72 5 0 5 5 5 0 4 3 5 0 0 0 0 0 0 0 0 0 0 0
100 100 100 8 8 100 100 100 100 73 79 35 1 96 100 51 31 5 3 0 21 100 100 53 79 12 5 5 44 45 5 3 0 0 2 0 0 0 0 0 0 1 0 0 0 2 5
100 98 100 12 58 100 100 100 96 52 100 100 15 12 94 7 36 39 6 1 99 100 100 54 5 5 5 5 81 11 5 5 4 1 0 0 0 0 4 5 5 5 1 1 5 5 5
76 56 79 5 100 100 100 100 100 100 100 89 6 0 0 0 57 32 15 5 100 100 100 12 6 13 5 19 43 8 5 5 5 5 0 0 5 5 5 5 5 5 5 5 5 5 3
100 32 58 27 100 100 100 100 100 100 100 100 3 0 0 82 100 100 10 100 100 100 80 54 52 22 12 84 40 51 6 5 5 0 5 5 5 5 5 5 5 8 27 5 5 4 5
5 5 7 25 100 100 100 100 100 100 83 90 0 1 4 100 100 95 46 100 100 100 32 50 78 6 81 55 41 15 26 5 2 1 5 5 5 5 5 6 67 99 1 5 1 0 5
5 63 100 100 100 100 100 100 100 86 17 40 14 43 0 96 100 38 100 100 100 90 81 48 25 45 100 48 35 43 5 5 0 2 5 5 5 29 20 93 100 99 5 1 0 5 5
100 100 100 100 100 100 100 100 100 58 11 89 100 29 5 100 100 100 100 100 100 99 17 19 5 66 90 34 21 5 8 10 5 5 5 5 5 62 98 22 100 100 91 5 5 5 5
100 100 100 100 100 100 100 99 66 60 100 100 86 2 95 100 100 100 100 100 100 69 35 19 12 96 62 9 28 27 6 5 5 5 5 5 5 5 66 81 85 100 20 5 6 5 100
100 100 100 100 100 99 100 89 96 100 100 100 90 100 100 100 100 100 92 92 100 64 66 50 69 75 59 50 91 29 22 5 5 5 70 28 44 49 59 49 95 53 83 47 32 74 89
100 100 100 100 100 100 100 100 100 100 30 96 100 100 100 100 100 100 97 100 88 16 21 98 56 100 99 60 78 36 51 25 8 5 5 14 39 79 61 69 35 26 49 56 60 53 8
100 100 100 100 100 100 100 100 100 78 98 100 100 100 100 100 100 100 100 100 68 9 6 57 42 70 97 100 53 63 96 67 33 71 5 5 8 64 5 5 5 5 51 9 34 98 74

GFSGBSN_prec_cloud_045.txt.gz
Cloud_Cover
100 100 100 94 100 100 67 96 74 100 18 5 0 0 0 0 0 0 0 5 7 100 9 0 0 0 6 0 0 2 0 0 1 5 5 7 33 5 46 100 100 100 100 100 97 100 100
100 100 100 100 100 96 100 100 100 28 8 4 2 0 5 0 0 0 0 6 74 18 1 0 0 25 3 61 97 67 5 1 4 5 78 6 42 14 95 100 100 100 100 100 100 100 100
100 100 100 100 100 100 100 100 94 35 5 5 5 5 5 5 0 0 0 5 73 75 1 0 0 0 9 100 100 100 52 3 94 15 80 100 43 51 100 100 100 100 100 100 100 100 100
100 100 100 100 100 100 86 100 92 78 5 5 5 1 5 5 0 0 0 2 100 97 5 0 2 0 5 51 100 100 25 5 12 5 100 69 43 96 100 100 100 100 100 100 100 100 99
86 78 99 20 11 100 97 86 61 16 5 38 5 10 2 4 0 2 2 5 76 68 20 1 3 0 5 7 82 70 11 32 28 44 21 54 100 100 100 100 100 100 100 100 100 99 100
85 38 18 4 1 79 99 72 33 5 23 39 5 7 5 5 0 2 5 6 87 73 19 0 0 0 5 3 69 48 4 100 100 83 96 99 100 100 100 100 100 100 100 100 100 100 99
5 5 36 5 5 5 100 100 2 5 63 21 5 5 5 15 4 5 45 5 42 100 5 0 0 0 5 3 98 35 2 100 98 58 98 100 100 100 100 100 100 100 100 100 100 100 100
6 75 100 26 5 68 38 100 66 5 5 98 56 5 5 5 7 2 17 16 100 87 85 0 0 1 9 96 86 1 51 92 100 100 100 100 100 100 100 100 100 100 100 100 100 100 100
5 5 47 99 87 63 23 76 96 5 5 15 6 49 74 64 97 17 5 6 85 100 25 0 0 1 47 81 97 5 5 100 100 100 100 100 100 100 100 100 100 100 100 100 100 100 100
2 91 99 100 83 67 6 59 89 4 5 33 94 100 100 100 60 78 42 79 100 100 40 0 0 0 0 93 4 4 5 100 93 100 100 100 100 100 100 100 100 100 100 100 100 100 100
31 24 5 6 73 100 87 96 76 98 100 100 100 100 100 100 100 80 100 100 100 99 7 0 0 0 0 4 4 3 5 100 100 100 100 100 100 100 100 100 100 100 100 100 100 100 100
1 4 5 5 20 75 93 100 100 100 100 100 100 100 100 100 100 100 100 100 100 90 5 0 0 0 5 1 0 0 4 24 69 71 87 100 100 100 100 100 100 100 100 94 92 82 100
5 5 38 38 100 100 99 100 100 100 100 100 100 100 100 100 100 100 77 100 44 100 5 0 1 5 7 0 0 1 5 8 36 98 100 100 100 99 100 100 74 89 51 92 94 99 16
5 100 94 96 74 100 100 55 100 100 100 100 100 100 100 100 100 100 100 100 100 9 2 0 7 23 90 100 100 100 24 100 100 100 100 100 99 95 91 38 100 14 74 100 52 60 48
39 99 100 100 98 100 100 100 100 100 100 100 100 100 100 100 100 100 100 100 100 5 2 0 5 97 46 40 1 5 5 7 5 29 100 100 100 8 5 5 5 31 2 1 0 3 7
100 64 100 100 100 100 100 100 100 100 100 100 100 100 100 100 100 39 93 100 97 21 3 0 38 37 83 47 100 84 13 52 50 66 77 62 94 3 0 1 0 0 4 5 5 4 2
100 94 53 100 100 100 100 100 100 100 100 100 100 100 100 100 97 74 58 100 72 44 0 0 100 87 100 100 52 6 5 2 1 4 1 10 7 47 4 5 5 8 5 5 2 1 0
100 100 98 100 100 100 100 100 100 100 100 100 100 100 100 46 62 85 100 100 60 71 0 5 66 93 100 54 39 55 5 5 0 0 3 5 5 5 5 5 4 1 0 0 0 0 0
100 100 100 100 100 100 100 100 100 100 100 100 100 100 100 99 100 100 100 100 22 5 2 50 100 100 100 95 88 72 5 1 1 5 5 1 3 5 5 1 0 0 0 0 0 0 0
100 100 100 100 100 96 84 100 100 100 100 100 100 100 100 99 100 100 85 20 67 5 6 5 100 100 100 100 81 78 5 58 7 31 5 4 2 1 5 32 29 4 0 0 0 0 0
100 100 100 100 100 87 8 98 100 100 100 100 100 100 94 100 100 100 52 22 5 5 0 3 100 100 100 100 87 59 28 9 15 13 5 5 5 1 0 1 2 1 0 2 5 0 6
100 100 100 100 100 99 2 100 100 100 100 100 100 100 97 100 100 94 94 36 5 5 4 24 100 100 91 100 69 88 66 5 6 5 12 5 0 0 0 0 0 4 5 2 0 3 5
100 100 90 85 100 64 4 39 100 100 96 77 98 94 96 73 43 98 15 5 5 67 7 83 100 69 54 61 99 100 47 32 6 5 5 5 2 2 4 5 5 12 5 4 5 5 5
100 92 79 72 7 4 46 100 100 100 81 74 91 64 100 5 1 18 75 100 5 46 41 100 99 87 90 77 93 94 56 59 5 5 5 5 3 5 8 5 86 10 5 4 5 5 5
68 100 35 5 5 19 93 100 100 100 99 100 100 93 100 98 27 33 100 78 100 100 100 100 88 61 10 58 66 77 78 63 36 21 5 5 5 8 56 25 90 5 5 5 5 5 9
5 100 34 5 5 100 100 100 100 100 100 100 100 92 100 7 14 30 100 73 65 100 100 100 98 12 33 67 70 64 70 10 63 5 5 5 5 5 54 63 72 53 5 5 5 5 36
5 5 3 45 78 100 100 100 100 100 100 92 100 100 89 22 99 100 54 48 100 100 100 100 55 82 68 70 92 34 76 38 19 5 66 17 43 38 5 35 5 11 7 18 10 33 8
100 100 100 100 100 100 100 100 100 100 100 79 100 100 78 35 100 100 98 100 100 100 100 100 47 12 80 71 62 32 64 50 6 5 5 5 6 72 6 65 63 26 42 96 82 40 14
100 100 100 100 100 100 100 100 100 100 100 100 100 99 77 100 100 87 100 100 100 100 100 98 49 10 6 21 95 66 92 70 8 5 5 5 6 18 19 6 7 34 6 32 7 27 38

GFSGBSN_prec_cloud_048.txt.gz
Cloud_Cover
100 100 100 100 100 100 100 100 100 92 100 78 9 64 68 5 3 0 0 0 0 0 2 0 0 5 6 1 0 4 11 5 4 0 3 5 18 79 3 91 75 100 94 100 100 100 100
100 100 100 100 100 100 100 100 100 100 100 79 20 7 5 5 5 4 0 2 0 0 0 0 0 34 2 3 0 34 77 100 93 5 5 39 34 31 100 49 100 100 100 100 96 97 100
100 100 100 100 100 100 100 100 100 100 99 100 5 5 5 5 5 5 1 0 0 0 0 0 0 3 5 0 0 62 100 100 38 61 5 65 23 88 81 74 100 100 100 100 93 100 100
100 100 100 100 100 100 100 100 100 100 94 9 5 5 5 5 5 5 5 0 0 0 0 0 5 1 0 0 0 78 100 80 0 4 2 56 24 5 65 100 100 100 100 100 100 100 100
100 100 84 94 100 100 100 100 100 100 98 96 13 0 4 5 5 5 5 0 0 0 0 5 3 0 1 0 3 5 1 1 3 0 6 20 14 67 100 100 100 100 100 100 100 100 99
100 100 99 100 82 48 7 87 100 100 93 73 5 5 35 6 5 4 0 5 0 0 4 5 0 3 1 0 5 0 1 0 90 6 38 40 100 100 100 100 100 100 100 100 100 100 100
20 97 48 7 8 9 5 78 100 100 76 65 5 51 5 5 5 1 2 0 5 2 5 5 4 3 0 0 0 85 71 9 100 42 5 99 98 100 100 100 100 100 100 80 74 100 100
88 68 98 99 100 51 30 5 93 100 100 90 29 79 100 54 5 5 15 2 4 5 7 5 5 5 0 0 0 5 2 3 64 95 74 100 100 100 100 100 100 100 100 100 100 86 100
52 22 69 100 100 100 100 11 89 98 94 100 100 100 100 100 5 24 5 5 2 8 5 5 12 5 0 0 0 50 0 3 100 100 79 98 100 95 100 100 100 100 92 100 100 100 100
78 97 5 56 100 100 100 100 97 22 89 100 100 100 100 20 44 90 5 5 12 90 70 15 82 2 0 0 6 0 4 6 92 100 86 100 100 100 100 100 100 100 100 97 100 90 100
99 100 47 81 100 100 100 100 94 93 58 100 83 100 100 99 100 21 95 9 49 43 38 31 13 0 0 0 12 0 2 3 100 100 98 99 100 93 98 100 91 100 100 100 100 100 100
98 70 64 54 72 100 100 100 100 100 43 100 100 100 100 100 100 5 41 93 82 80 98 78 39 2 2 0 5 4 0 0 10 90 81 92 100 100 95 99 95 100 92 100 100 100 100
96 45 66 35 6 20 100 100 100 100 100 100 100 100 100 100 98 100 100 76 50 88 82 100 20 0 0 4 5 0 5 5 4 5 100 84 91 95 100 100 100 100 100 100 100 100 100
100 100 85 68 35 43 38 100 100 100 100 100 100 100 100 100 100 100 100 70 86 100 100 100 69 2 5 10 12 56 15 59 87 78 46 80 98 87 100 100 100 100 100 100 100 80 85
100 100 100 98 41 5 21 48 100 100 100 100 100 100 100 100 100 100 80 95 100 100 100 100 50 5 5 7 7 5 14 94 100 100 100 91 100 90 88 100 100 100 90 94 64 22 77
100 92 100 100 100 5 29 29 100 100 100 100 100 100 100 100 100 100 88 96 100 100 100 100 77 4 5 9 5 5 4 50 98 72 27 19 90 100 97 76 65 86 26 5 18 4 4
100 89 100 100 100 60 4 5 59 100 100 100 100 100 100 100 98 95 43 100 100 100 100 100 86 8 5 74 5 63 100 92 64 77 100 100 100 96 67 4 5 14 5 0 0 46 44
100 100 100 100 100 100 34 37 50 100 100 100 100 100 100 100 95 96 100 100 100 100 100 100 43 80 5 81 100 93 100 52 5 24 93 82 53 11 4 5 1 0 26 5 7 5 4
100 100 100 100 100 100 95 100 6 14 100 100 100 100 100 100 100 100 100 100 100 100 100 100 2 3 5 61 100 100 33 64 46 5 26 67 2 0 3 23 5 5 5 5 1 29 0
100 100 100 100 100 100 100 100 51 6 96 100 100 100 100 100 100 100 100 100 100 100 100 99 5 1 5 49 96 85 47 49 55 45 10 0 5 5 18 4 87 77 6 1 5 4 0
100 35 100 100 100 100 100 100 79 3 96 100 100 100 100 100 100 100 100 100 100 100 100 99 5 4 5 5 100 100 21 40 63 5 5 15 69 18 5 5 79 0 50 64 5 5 3
100 52 100 100 100 100 100 100 94 10 90 100 100 100 100 100 100 100 100 100 100 77 97 15 58 5 5 32 100 100 6 6 79 72 73 23 5 5 5 3 0 0 4 2 0 0 0
62 100 100 100 100 100 100 100 81 2 100 100 71 98 100 100 100 100 100 100 100 100 100 32 4 39 4 40 94 98 32 89 79 9 70 58 5 5 5 2 5 5 0 0 0 0 0
100 100 100 100 100 100 100 100 12 5 100 100 100 100 100 43 98 100 100 100 100 100 96 99 55 4 26 67 100 100 64 92 36 28 51 5 25 7 5 5 5 0 0 0 0 0 0
100 100 100 91 100 100 100 63 33 24 100 100 100 98 100 100 100 100 100 100 100 100 66 52 8 0 16 54 96 100 6 5 15 46 47 50 53 18 22 14 6 0 2 0 0 0 4
100 100 100 62 5 92 47 13 0 33 100 100 86 100 100 12 24 97 100 99 57 77 9 100 25 1 50 89 91 100 29 5 44 88 38 33 15 29 5 5 13 5 5 4 5 5 5
100 100 78 8 5 5 5 1 6 70 100 96 98 85 100 65 100 97 42 61 31 23 0 10 8 52 71 78 100 100 73 5 71 69 57 40 75 68 5 47 5 17 5 5 5 5 5
79 100 100 55 5 5 5 4 34 100 100 79 96 97 100 20 91 100 100 18 90 42 10 98 100 8 89 100 100 100 43 5 42 9 10 75 55 72 11 91 63 5 21 13 5 5 5
100 76 11 11 1 5 4 82 100 100 100 100 100 100 100 100 90 97 87 29 100 92 100 100 100 100 100 100 100 100 90 72 59 76 26 43 59 19 11 5 5 5 6 38 57 5 5

GFSGBSN_prec_cloud_051.txt.gz
Cloud_Cover
100 100 100 100 100 100 100 100 100 100 100 100 100 100 100 100 15 5 5 0 0 2 4 0 0 0 6 0 0 0 0 5 5 4 0 1 2 5 5 27 95 65 96 100 100 95 100
100 100 100 100 100 100 100 100 100 100 100 100 100 100 100 100 5 3 5 4 2 0 1 0 0 0 15 0 0 0 0 5 5 52 5 3 2 3 8 36 97 85 59 85 94 100 100
100 100 100 100 100 100 100 100 100 100 100 100 100 100 100 100 5 5 5 0 2 0 0 0 0 1 0 0 0 0 0 7 85 32 29 5 25 37 7 23 5 25 100 100 100 84 100
76 99 100 100 100 100 100 100 100 100 100 100 100 100 100 100 17 5 5 5 4 2 3 0 0 0 0 0 0 0 0 0 0 0 17 4 15 40 54 100 69 84 100 100 100 80 100
100 100 85 98 100 100 100 100 100 100 100 100 100 100 100 100 26 5 31 5 5 2 0 0 0 0 0 0 0 0 0 0 1 2 5 7 2 29 100 100 100 100 100 100 100 99 100
91 100 100 97 100 100 100 100 100 100 100 100 100 100 100 74 95 64 91 3 5 5 5 4 0 0 0 0 0 0 0 4 100 3 42 18 73 98 100 100 100 100 100 100 100 100 100
99 100 85 100 100 100 100 100 100 100 100 100 100 100 100 100 100 100 100 5 5 5 0 5 5 0 0 0 0 0 0 0 23 0 35 100 100 100 100 100 100 100 100 100 100 99 97
100 100 100 99 100 100 100 100 100 96 100 100 100 100 100 100 100 100 100 54 38 5 5 11 5 2 0 0 0 0 0 0 1 54 72 52 99 100 96 78 98 100 100 100 100 100 100
100 100 100 100 100 100 100 100 100 100 86 100 100 100 100 100 100 100 89 5 43 3 12 32 5 5 0 0 0 0 0 0 2 87 20 99 90 100 100 100 72 63 74 93 94 100 100
88 86 100 98 100 100 100 100 100 42 98 52 100 100 100 100 100 100 7 96 5 5 87 26 56 10 4 0 0 0 0 0 3 5 22 100 100 73 25 79 96 96 100 100 100 98 100
100 99 100 100 100 100 100 100 100 94 71 59 94 100 100 100 100 100 99 11 7 98 36 51 59 19 5 0 0 0 3 6 0 50 37 47 46 96 20 75 100 77 72 93 100 100 100
100 96 69 100 100 100 100 100 100 100 41 95 100 100 100 100 100 99 52 29 94 57 86 5 88 72 5 5 0 0 53 2 0 98 5 84 92 40 97 65 92 72 50 55 100 100 100
100 100 92 100 100 100 100 100 100 100 85 42 100 100 100 100 100 100 100 100 42 98 46 5 43 36 6 8 0 0 17 0 2 5 3 84 100 100 100 99 89 100 71 70 100 100 98
100 80 100 100 100 100 100 97 100 100 100 87 100 100 100 100 100 100 100 100 81 99 97 5 56 44 54 98 5 0 13 3 0 20 30 95 96 100 48 48 100 100 99 96 100 100 76
100 85 100 100 100 100 100 100 91 100 100 100 100 100 100 100 100 100 100 97 98 100 87 7 71 86 98 100 18 9 32 0 2 13 46 99 100 100 84 73 100 100 96 100 100 100 100
100 100 100 100 92 100 100 100 44 46 100 100 100 100 100 100 100 72 97 67 65 99 100 90 67 98 100 100 23 92 54 0 5 30 88 100 100 100 99 94 99 100 78 98 64 65 100
100 100 100 100 100 100 100 100 100 34 68 100 100 100 100 100 100 89 71 100 100 100 100 100 100 100 100 100 100 37 25 0 4 49 69 86 68 100 100 97 100 99 61 95 25 6 9
100 100 100 100 100 100 100 100 95 94 67 92 100 100 100 100 46 62 98 100 100 100 100 100 100 100 100 70 49 84 42 2 99 100 100 25 58 99 100 28 88 5 3 8 5 5 5
100 100 100 100 100 100 100 100 100 7 100 99 100 100 99 100 85 12 100 100 100 100 100 100 100 100 100 100 100 31 4 14 21 88 14 35 100 100 100 100 28 0 0 0 4 5 5
88 96 99 87 100 100 100 100 100 9 99 100 100 100 93 100 68 68 100 100 100 100 100 100 100 100 100 100 77 81 26 94 42 96 3 7 100 88 100 11 0 92 5 5 5 5 2
83 100 64 100 100 100 100 100 100 82 100 100 100 57 75 100 85 100 100 100 100 100 100 100 100 100 100 100 97 5 99 8 23 56 4 12 50 8 5 5 36 31 47 39 23 85 73
29 5 92 64 100 100 100 100 100 86 92 100 100 99 94 94 98 75 100 100 100 100 100 100 100 100 100 100 52 7 99 2 6 100 0 5 3 4 35 5 18 13 3 0 5 2 0
25 6 93 99 100 82 100 100 100 99 68 100 100 70 98 31 100 30 100 100 100 100 100 100 100 100 100 100 25 64 47 4 18 100 10 13 6 5 33 6 45 5 0 2 0 0 0
28 22 99 74 100 100 100 100 100 100 9 100 98 100 79 5 25 31 81 100 100 100 100 100 100 100 100 69 13 0 2 5 13 100 5 15 6 42 7 14 58 3 5 5 2 1 2
49 5 31 5 100 100 100 100 100 75 23 99 95 100 14 98 5 5 20 88 100 100 100 100 100 100 100 61 21 88 36 92 59 100 5 23 39 23 5 5 6 5 5 5 5 5 5
47 5 70 21 100 100 100 100 100 80 23 100 100 100 100 65 8 98 100 100 100 86 100 100 100 100 96 100 95 8 50 14 45 100 60 6 68 5 47 5 5 13 26 5 5 5 5
100 29 100 100 100 100 100 100 21 25 48 95 100 100 100 100 36 100 53 100 100 100 100 100 100 67 100 100 100 36 35 85 18 100 6 10 95 12 60 35 5 89 5 5 5 5 13
49 100 100 100 100 100 62 17 36 28 69 96 100 100 100 93 94 88 52 87 100 92 100 75 23 11 100 100 100 63 24 48 82 100 5 5 58 39 54 84 39 44 77 7 6 5 5
99 100 100 100 100 77 5 8 30 6 14 81 100 100 100 100 62 100 100 99 100 50 57 4 5 2 34 98 100 97 96 100 100 100 13 14 38 50 12 12 23 99 91 85 5 5 5

GFSGBSN_prec_cloud_057.txt.gz
Cloud_Cover
99 100 100 100 100 100 100 100 100 100 100 100 100 100 100 100 100 97 100 98 100 100 100 100 100 69 5 2 0 0 0 0 0 0 0 1 2 2 37 9 8 7 77 100 17 51 65
100 98 67 100 100 100 100 100 100 100 100 100 100 100 100 100 100 100 100 100 100 100 100 100 100 99 1 0 0 0 0 0 0 0 0 0 93 4 5 45 22 5 82 100 51 77 100
100 100 6 39 100 100 100 100 100 100 100 100 100 100 100 100 100 100 100 100 100 100 100 100 100 99 1 0 0 0 0 0 0 0 0 4 2 56 80 12 20 5 44 100 46 86 87
100 100 100 100 99 100 100 100 100 100 100 100 100 100 100 100 92 100 100 100 100 100 100 100 100 9 1 0 0 0 0 0 0 0 0 0 1 30 5 84 38 26 6 77 68 91 70
100 100 100 100 100 97 100 100 100 100 100 100 100 100 100 100 100 100 100 100 100 100 100 100 71 22 5 0 0 0 0 0 0 0 0 0 0 2 5 26 40 87 5 69 99 98 100
100 100 100 100 100 99 46 96 100 100 100 100 100 100 100 100 100 100 100 100 100 100 100 41 6 14 5 0 0 0 0 0 0 0 0 3 0 0 40 4 17 56 100 99 98 85 100
100 100 100 100 100 100 78 52 100 100 100 100 100 100 100 100 100 100 97 85 100 100 87 100 69 5 0 0 0 0 0 0 0 0 1 1 24 58 87 99 95 100 100 72 100 98 71
100 100 100 100 100 100 100 55 40 79 100 100 100 100 100 100 100 100 100 100 100 100 72 100 97 5 2 0 0 0 0 0 0 0 3 5 48 55 69 91 95 100 100 100 100 43 52
100 100 100 100 100 100 100 100 65 97 80 100 100 100 100 100 100 100 100 100 100 100 100 100 72 5 12 3 0 0 0 0 0 0 2 0 7 5 44 85 98 99 74 88 26 94 98
100 86 100 100 100 100 100 100 99 65 94 100 100 100 100 100 100 100 100 100 100 100 100 52 100 5 6 5 0 0 0 0 0 0 2 5 5 5 5 45 70 22 100 96 82 100 100
0 99 100 100 100 100 100 100 100 100 100 100 100 100 100 100 100 100 100 100 100 100 100 100 96 5 5 5 0 0 0 0 0 0 2 5 51 5 9 89 100 100 100 97 96 100 86
0 2 96 100 100 100 100 100 100 100 100 100 100 100 100 100 100 100 100 100 100 100 100 100 82 33 5 5 5 0 0 0 0 0 0 17 23 70 7 9 34 99 95 99 100 80 43
5 0 1 100 100 100 100 100 100 100 100 100 100 100 100 100 100 99 100 100 100 100 100 100 94 32 5 60 49 2 0 0 0 0 0 57 56 39 25 21 42 100 29 13 45 99 10
5 5 0 36 100 100 100 100 100 100 100 100 100 100 100 100 100 100 100 100 100 100 100 100 90 7 5 6 17 5 1 1 4 0 0 24 29 6 87 5 65 16 19 77 88 40 35
62 5 4 0 31 99 100 100 100 100 100 100 85 100 98 100 100 90 100 100 100 100 100 100 32 84 6 8 5 5 3 3 26 2 0 5 2 5 87 93 88 81 73 86 61 59 29
100 100 40 5 0 22 100 100 100 100 100 100 100 77 86 100 100 98 93 100 100 100 100 92 54 100 53 77 5 9 5 5 5 9 0 1 0 5 38 79 40 81 22 46 57 71 82
100 100 100 5 5 4 97 100 100 100 100 100 85 96 89 100 100 100 77 51 100 100 100 100 100 100 89 6 12 69 49 12 11 80 5 0 2 1 5 47 100 80 68 15 12 8 6
100 100 100 33 5 2 4 100 100 100 100 100 98 87 100 80 100 93 79 100 100 100 100 78 100 59 6 92 11 30 100 97 100 100 9 5 4 3 2 30 48 91 12 95 5 5 5
100 100 100 100 96 5 6 90 100 100 100 100 100 61 99 4 90 93 70 100 100 100 90 62 97 39 46 59 62 100 100 100 100 100 42 2 5 5 4 0 3 5 54 100 21 5 5
100 100 100 100 100 5 43 100 100 100 100 100 100 100 100 100 21 99 100 92 89 100 100 98 100 91 43 91 100 100 100 100 100 98 54 0 4 5 4 3 90 100 11 5 30 5 5
100 100 100 89 100 5 95 100 97 100 100 100 100 57 9 100 83 100 100 100 100 100 5 19 86 96 100 100 100 100 100 100 88 96 56 5 5 4 5 15 23 5 100 87 95 62 4
100 100 100 100 100 6 47 99 98 100 100 100 60 99 25 5 11 78 100 100 100 100 52 98 100 100 100 100 100 100 100 100 8 98 100 92 5 4 5 19 80 88 100 100 100 30 5
100 100 100 100 100 75 5 86 99 100 100 100 9 100 62 5 10 100 100 98 100 100 100 100 100 100 98 100 100 100 64 87 98 99 100 66 64 12 5 0 6 18 100 94 99 4 0
100 100 100 100 100 74 5 23 100 100 100 100 24 81 94 5 84 6 100 100 100 100 100 100 100 98 99 100 100 100 100 99 30 98 100 100 100 5 4 0 0 89 5 0 0 0 4
100 100 100 100 100 39 5 5 85 100 100 100 23 89 100 96 6 69 61 93 94 100 100 79 100 100 100 100 81 53 12 41 84 100 100 100 100 1 2 0 0 93 32 1 4 5 6
100 100 100 100 100 70 49 4 5 100 100 100 100 86 100 100 14 5 32 22 100 100 100 76 98 99 100 100 100 88 76 100 100 100 100 100 36 5 6 4 5 100 86 5 1 7 0
100 100 100 100 100 46 24 5 89 98 100 100 100 100 100 100 99 13 6 4 98 73 100 100 100 100 100 100 100 100 100 100 100 100 100 100 59 8 30 5 12 100 100 15 5 72 0
100 100 100 100 84 31 96 27 57 60 100 100 100 100 100 100 27 25 8 5 4 2 69 100 100 100 99 89 100 100 100 100 100 100 100 100 76 15 6 97 30 100 100 43 5 2 1
100 100 100 100 100 97 82 30 90 100 100 100 100 100 100 100 95 54 4 0 0 3 89 99 38 100 100 100 100 100 100 100 100 100 100 100 100 27 8 4 5 80 100 99 6 5 5

GFSGBSN_prec_cloud_060.txt.gz
Cloud_Cover
100 100 100 45 80 55 79 91 100 100 100 100 100 100 100 100 100 100 100 100 100 100 100 100 100 63 100 69 100 82 5 0 0 0 0 0 0 0 0 4 4 5 5 100 100 68 87
100 100 100 100 100 5 4 14 100 100 100 100 100 100 100 100 100 100 100 100 100 100 100 100 100 100 100 100 100 27 5 3 0 0 0 0 0 1 4 0 2 5 17 100 100 100 84
100 100 100 100 100 44 17 6 96 100 100 100 100 100 100 100 100 100 100 100 100 100 100 100 98 99 100 87 81 5 5 0 0 0 0 0 0 0 28 0 4 48 38 100 34 5 9
100 100 100 100 100 100 100 98 6 55 100 100 100 100 100 100 100 96 99 96 100 100 100 100 41 100 12 5 36 5 0 0 0 0 0 0 0 0 0 0 1 28 5 36 20 24 23
100 100 100 100 100 100 100 100 100 5 14 97 100 100 100 100 100 100 100 100 100 100 100 100 100 97 20 5 10 5 0 0 0 0 0 0 0 0 0 0 4 73 81 74 68 62 62
100 100 83 94 100 100 100 100 100 61 48 100 100 100 100 100 100 100 100 100 100 100 100 100 99 11 7 9 5 5 0 0 0 0 0 0 0 0 0 4 20 7 30 99 80 100 100
99 100 100 100 100 100 100 100 100 100 38 98 89 100 100 100 100 100 100 100 98 100 100 100 97 50 31 5 5 34 0 0 0 0 0 0 0 0 0 13 16 6 99 84 96 54 100
3 9 100 100 100 50 100 100 100 100 100 89 41 99 100 100 100 100 85 100 100 100 100 100 100 94 100 99 19 5 0 0 0 0 0 0 2 4 1 88 72 95 100 100 89 98 98
5 2 4 90 100 100 100 100 100 100 100 100 100 100 100 100 100 100 100 88 100 100 86 99 100 100 100 57 5 5 0 0 0 0 0 0 1 5 1 5 5 12 88 96 100 100 100
78 4 3 4 25 100 100 100 100 100 100 100 100 100 100 100 100 100 100 100 100 100 42 100 43 100 100 61 4 5 0 0 0 0 0 0 0 0 0 1 5 19 68 100 100 100 100
5 5 2 0 0 100 100 100 100 100 100 98 100 100 100 97 100 100 100 100 100 100 22 94 38 100 100 100 37 4 0 0 0 0 0 0 0 0 0 0 5 7 89 97 94 89 99
6 5 5 5 0 3 58 100 100 100 100 100 92 100 100 100 100 100 98 100 100 100 98 26 94 100 100 68 71 5 0 0 0 0 0 2 1 0 0 1 5 22 65 13 5 10 49
28 44 23 64 5 0 14 100 100 100 100 100 96 98 100 100 100 95 99 100 100 100 100 45 99 100 84 99 13 4 0 0 0 0 0 0 5 5 4 4 5 18 98 52 18 29 48
24 80 95 100 55 4 0 70 100 100 100 100 100 14 72 100 100 100 100 100 100 100 100 100 100 100 96 24 69 17 4 5 4 0 0 0 3 5 0 0 4 5 60 100 70 7 89
100 79 90 100 100 7 0 4 100 100 100 100 100 66 28 100 100 100 100 100 99 100 100 100 100 100 100 100 100 25 19 5 5 5 5 0 0 0 5 5 8 5 75 82 96 79 76
100 100 100 100 100 90 4 0 78 100 100 100 100 95 4 99 100 100 100 47 100 100 100 100 100 100 69 31 100 100 86 5 5 5 5 5 0 1 4 5 5 5 16 66 98 53 67
100 100 100 100 100 100 5 0 14 100 100 100 100 100 6 92 100 100 84 71 100 100 100 100 98 90 78 88 100 100 60 43 5 5 27 6 19 0 3 4 4 5 5 22 99 100 22
100 100 100 100 100 100 22 5 5 100 100 100 100 95 69 32 100 100 100 100 100 100 100 92 100 100 100 99 23 97 100 98 5 5 94 97 94 4 1 5 4 0 0 2 5 25 37
100 100 100 100 100 100 80 5 4 20 100 100 100 97 90 72 89 100 100 100 100 100 100 100 72 15 49 97 69 92 100 93 14 62 100 36 96 48 1 5 6 0 0 1 2 5 5
100 100 100 100 100 100 100 6 5 46 100 100 100 100 100 81 0 17 100 100 100 100 100 96 100 22 41 96 75 100 95 83 98 100 44 5 42 100 92 5 5 2 0 0 17 41 5
100 100 100 100 100 100 100 16 5 65 59 100 100 99 41 100 46 3 100 100 100 100 58 96 100 93 94 92 95 100 100 100 100 100 5 2 5 68 100 47 4 5 4 0 25 92 22
5 100 100 100 100 100 100 99 60 5 18 100 100 96 69 13 95 18 100 100 100 100 100 27 100 100 100 100 100 100 100 100 100 24 5 5 5 71 100 16 5 4 0 3 97 100 100
6 84 100 100 100 100 100 100 61 43 81 100 100 83 12 11 60 89 7 100 100 100 100 100 100 100 100 100 100 100 100 100 99 100 5 7 5 99 100 57 4 3 0 2 58 100 100
14 80 100 100 100 100 100 100 100 51 4 98 93 29 18 17 86 18 6 90 100 100 100 100 100 100 100 100 100 100 100 100 95 38 5 17 94 100 100 61 36 12 1 0 1 65 66
76 99 100 100 100 100 100 100 100 30 100 98 98 100 31 68 5 81 37 70 100 100 100 100 100 100 100 100 100 77 20 28 92 91 71 98 100 100 97 12 91 95 3 1 0 4 15
82 100 100 100 100 100 100 100 100 97 100 83 100 98 74 94 13 5 92 7 42 14 50 100 100 100 100 100 100 100 100 100 100 100 100 100 100 100 69 98 100 23 3 0 0 22 62
100 100 100 100 100 100 100 100 59 58 28 100 100 100 100 100 95 11 5 4 6 24 5 100 100 100 100 100 86 93 99 100 100 98 100 100 100 100 100 93 100 98 14 17 2 2 5
100 100 100 100 100 100 100 97 93 71 92 93 100 100 100 100 90 74 5 5 2 5 26 100 100 100 100 100 96 70 100 100 100 100 100 100 100 100 100 77 100 48 5 4 9 6 8
100 100 100 100 100 100 100 95 100 73 88 29 100 100 100 100 98 85 35 3 23 5 80 100 93 100 100 100 100 100 100 100 100 100 100 100 100 100 100 96 100 100 74 12 7 5 5